FW2985 Weather Reports


time (UTC)temp
C
wind
direction
speed
KPH
gust
KPH
rain 1hr
cm
rain 24hr
cm
rain mn
cm
humidity
%
barometer
mb
20260505051512 5 0.0 0.0 0.00 0.25 0.00 89 1006.6
20260505041555 6 0.0 0.0 0.00 0.25 0.00 87 1006.2
20260505040055 6 0.0 0.0 0.00 0.25 0.00 87 1006.0
20260505034547 6 0.0 0.0 0.00 0.25 0.00 87 1005.8
20260505033050 6 0.0 0.0 0.00 0.25 0.00 87 1005.7
20260505031538 6 0.0 0.0 0.00 0.25 0.00 87 1005.5
20260505030034 6 0.0 0.0 0.00 0.25 0.00 87 1005.2
20260505024552 6 0.0 0.0 0.00 0.25 0.25 87 1005.1
20260505023038 5 0.0 0.0 0.00 0.25 0.25 87 1004.9
20260505021543 6 0.0 0.0 0.00 0.25 0.25 86 1004.7
20260505020029 6 0.0 0.0 0.00 0.25 0.25 85 1004.5
20260505014528 7 0.0 0.0 0.00 0.25 0.25 83 1004.2
20260505013026 7 0.0 0.0 0.00 0.25 0.25 80 1004.1
20260505011528 7 0.0 0.0 0.00 0.25 0.25 81 1003.8
20260505010023 6 0.0 0.0 0.00 0.25 0.25 81 1003.8
20260505004536 7 0.0 0.0 0.00 0.28 0.25 79 1003.8
20260505003022 7 0.0 0.0 0.00 0.28 0.25 76 1003.7
20260505001521 7 0.0 0.0 0.00 0.28 0.25 75 1003.7
20260505000021 7 0.0 0.0 0.00 0.28 0.25 76 1003.3
20260504234519 6 0.0 0.0 0.00 0.38 0.25 78 1003.0
20260504233018 6 0.0 0.0 0.00 0.38 0.25 79 1003.0
20260504231516 5 0.0 0.0 0.00 0.38 0.25 79 1002.9
20260504230016 6 0.0 0.0 0.00 0.38 0.25 77 1002.8
20260504224515 6 0.0 0.0 0.00 0.53 0.25 76 1002.7
20260504223014 7 0.0 0.0 0.00 0.53 0.25 74 1002.7
20260504221512 7 0.0 0.0 0.00 0.53 0.25 74 1002.5
20260504220010 7 190 0.0 0.0 0.00 0.53 0.25 74 1002.3
20260504214509 7 191 0.0 0.0 0.00 0.61 0.25 73 1002.1
20260504213006 7 205 0.0 0.0 0.00 0.61 0.25 75 1002.0
20260504211503 7 215 0.0 0.0 0.00 0.61 0.25 77 1001.8
20260504210002 7 172 0.0 0.0 0.00 0.61 0.25 77 1001.6
20260504204618 7 203 0.0 0.0 0.00 0.71 0.25 78 1001.3
20260504203058 7 182 0.0 0.0 0.00 0.71 0.25 78 1001.2
20260504201608 7 205 0.0 0.0 0.00 0.71 0.25 80 1001.1
20260504200107 7 217 0.0 0.0 0.00 0.71 0.25 80 1000.7
20260504194553 7 198 0.0 0.0 0.00 0.84 0.25 80 1000.5
20260504193050 7 195 0.0 0.0 0.00 0.84 0.25 81 1000.4
20260504191547 6 182 0.0 0.0 0.00 0.84 0.25 86 1000.2
20260504190047 6 186 0.0 0.0 0.00 0.84 0.25 86 1000.0
20260504184550 6 189 0.0 0.0 0.00 0.84 0.25 87 999.9
20260504183044 6 205 0.0 0.0 0.00 0.84 0.25 87 999.8
20260504181546 6 215 0.0 0.0 0.00 0.84 0.25 87 999.7
20260504180041 6 232 0.0 0.0 0.00 0.84 0.25 87 999.7
20260504174540 5 0.0 0.0 0.00 0.84 0.25 89 999.7
20260504173039 5 0.0 0.0 0.00 0.84 0.25 88 999.2
20260504171537 5 0.0 0.0 0.00 0.84 0.25 89 998.9
20260504081520 3 0.0 0.0 0.08 0.79 0.20 88 978.0